[[{"header":{"parameterUnit":"m.s-1","parameterCategory":1,"la1":30.2992,"la2":30.254,"lo1":-89.0895,"lo2":-89.0443,"dy":0.0025,"dx":0.0025,"nx":19,"ny":19,"refTime":"2026-04-18T09:00:00:Z","depth":0,"parameterNumber":2,"parameterNumberName":"U-component_of_WINDS"},"data":[0,0,0,0.1519,0.1521,0.1626,0.1626,0.1748,0.1748,0,0,0,0,0,0,0,0,0,0,0,0.1477,0.1477,0.1519,0.1521,0.1625,0.1626,0.1747,0.1748,0,0,0,0,0,0,0,0,0,0,0,0.1477,0.1477,0.1478,0.1521,0.1625,0.1626,0.1747,0.1673,0,0,0,0,0,0,0,0,0,0,0.1574,0.1524,0.1477,0.1478,0.1522,0.1625,0.1626,0.167,0.1678,0.1694,0,0.1702,0,0.1727,0.1755,0.1756,0,0,0,0.153,0.1517,0.1555,0.1478,0.1523,0.1625,0.1581,0.1675,0.1684,0.1704,0.1704,0.1709,0.1729,0.1756,0.1757,0.1811,0.1811,0,0,0.1524,0.1491,0.1549,0.156,0.154,0.1577,0.1584,0.168,0.1679,0.1704,0.1712,0.1731,0.1757,0.1758,0.1812,0.1811,0,0,0,0.1501,0.1486,0.1522,0.1555,0.1574,0.158,0.1588,0.1675,0.1689,0.1714,0.1732,0.1757,0.1759,0.1812,0.1812,0.177,0,0,0,0.1498,0.1473,0.1519,0.15,0.1572,0.1625,0.158,0.1682,0.1694,0.1732,0.1758,0.176,0.1812,0.1812,0.1772,0.1756,0,0,0,0.1474,0.1471,0.1482,0.1498,0.1541,0.1624,0.1645,0.1686,0.1705,0.1756,0.176,0.1812,0.1812,0.1773,0.1759,0.1761,0,0,0,0.1439,0.1444,0.148,0.1494,0.154,0.1597,0.1644,0.1689,0.1728,0.1758,0.1812,0.1812,0.1773,0.176,0.1762,0.1756,0.175,0,0,0.1427,0.1442,0.1452,0.1488,0.1529,0.1584,0.1621,0.1689,0.1726,0.1782,0.1784,0.1771,0.1759,0.1761,0.173,0.1725,0,0,0,0.1438,0.1445,0.1463,0.1497,0.1547,0.159,0.1656,0.1682,0.173,0.1747,0.1774,0.1767,0.177,0.1769,0.1765,0.177,0.181,0.181,0.181,0.1373,0.1418,0.1439,0.1497,0.153,0.1597,0.1629,0.1675,0.1713,0.1719,0.1735,0.1711,0.1708,0.1705,0.171,0.1736,0.1736,0.1736,0.1736,0.136,0.1377,0.1426,0.1464,0.1513,0.1547,0.1614,0.1639,0.1679,0.1702,0.1707,0.1727,0.1698,0.1705,0.1733,0.1734,0.1734,0.1734,0.1734,0.1322,0.1338,0.1368,0.1422,0.1459,0.152,0.1555,0.16,0.1642,0.1647,0.1669,0.167,0.1677,0.1654,0.1654,0.1654,0.1654,0.1654,0.1654,0.127,0.1306,0.1329,0.1384,0.1412,0.1455,0.1524,0.1554,0.1599,0.1628,0.1629,0.1666,0.1687,0.1691,0.1653,0.1653,0.1653,0.1653,0.1653,0.1239,0.1254,0.1289,0.1317,0.1386,0.1421,0.1477,0.1535,0.1566,0.1583,0.162,0.1628,0.1647,0.165,0.1654,0.1609,0.1609,0.1609,0.1609,0.1207,0.1221,0.1268,0.131,0.1357,0.1411,0.1453,0.1508,0.1568,0.1591,0.1604,0.1613,0.1615,0.1633,0.1637,0.1641,0.1594,0.1594,0.1594,0.1191,0.1211,0.1236,0.1293,0.1351,0.14,0.1442,0.149,0.1561,0.1594,0.161,0.1611,0.1626,0.1628,0.166,0.1665,0.1674,0,0]},{"header":{"parameterUnit":"m.s-1","parameterCategory":1,"la1":30.2992,"la2":30.254,"lo1":-89.0895,"lo2":-89.0443,"dy":0.0025,"dx":0.0025,"nx":19,"ny":19,"refTime":"2026-04-18T09:00:00:Z","depth":0,"parameterNumber":3,"parameterNumberName":"V-component_of_WINDS"},"data":[0,0,0,4.9693,4.9694,4.9723,4.9723,4.9762,4.9762,0,0,0,0,0,0,0,0,0,0,0,4.9687,4.9687,4.9693,4.9694,4.9722,4.9723,4.9762,4.9762,0,0,0,0,0,0,0,0,0,0,0,4.9687,4.9687,4.9688,4.9694,4.9722,4.9723,4.9762,4.9739,0,0,0,0,0,0,0,0,0,0,4.971,4.9708,4.9687,4.9688,4.9694,4.9722,4.9723,4.9738,4.974,4.975,0,4.9761,0,4.9763,4.9765,4.9765,0,0,0,4.9691,4.9705,4.9711,4.9688,4.9694,4.9722,4.9709,4.9739,4.9742,4.9754,4.9762,4.9763,4.9763,4.9765,4.9766,4.9837,4.9837,0,0,4.9689,4.9693,4.9709,4.9713,4.9711,4.9708,4.971,4.9741,4.9749,4.9762,4.9764,4.9764,4.9766,4.9766,4.9837,4.9837,0,0,0,4.9687,4.9692,4.9697,4.9712,4.9717,4.9709,4.9711,4.9748,4.9749,4.9764,4.9764,4.9766,4.9767,4.9836,4.9837,4.9864,0,0,0,4.9686,4.969,4.9696,4.9699,4.9717,4.9733,4.9717,4.9747,4.975,4.9764,4.9766,4.9767,4.9836,4.9837,4.9862,4.9875,0,0,0,4.9684,4.969,4.9696,4.9699,4.9712,4.9732,4.9735,4.9747,4.975,4.9765,4.9767,4.9835,4.9836,4.986,4.9873,4.9896,0,0,0,4.9683,4.9717,4.9696,4.9735,4.9712,4.9749,4.9735,4.9762,4.9779,4.9766,4.9836,4.9837,4.986,4.9871,4.9894,4.9916,4.9926,0,0,4.9728,4.9723,4.9745,4.9727,4.977,4.9745,4.9791,4.9801,4.9798,4.9824,4.9826,4.9863,4.9873,4.9896,4.9979,4.9986,0,0,0,4.9761,4.9777,4.9788,4.9804,4.9815,4.9824,4.9828,4.9832,4.9854,4.9813,4.9877,4.9883,4.9896,4.9907,4.9913,4.9925,4.9842,4.9842,4.9842,4.9828,4.9825,4.9863,4.9863,4.988,4.9884,4.9897,4.9903,4.9893,4.9908,4.9916,4.9967,4.9979,4.9984,4.9996,4.9927,4.9927,4.9927,4.9927,4.9894,4.9917,4.9906,4.9938,4.9934,4.996,4.9966,4.9959,4.9982,4.996,4.9972,4.9948,4.9992,5.0003,4.9929,4.9929,4.9929,4.9929,4.9928,4.9938,4.9948,4.9955,4.998,5.0,4.9999,5.0023,5.0018,5.0013,5.0025,5.0033,5.0032,5.0031,5.0029,5.003,5.003,5.003,5.003,5.003,4.998,4.9987,5.0009,5.0025,5.0036,5.005,5.0057,5.0067,5.0077,5.0071,5.0071,5.006,4.9998,4.9982,5.0033,5.0032,5.0032,5.0032,5.0032,5.0047,5.0032,5.0066,5.0078,5.0097,5.0118,5.0113,5.0135,5.0142,5.0155,5.0142,5.0097,5.009,5.0085,5.0072,5.0142,5.0142,5.0142,5.0142,5.0084,5.0081,5.0116,5.0135,5.0154,5.0153,5.0191,5.0197,5.02,5.0205,5.0194,5.0177,5.0172,5.0168,5.0161,5.0149,5.0237,5.0238,5.0238,5.0125,5.0124,5.0158,5.0164,5.0179,5.0193,5.0229,5.025,5.025,5.0241,5.0209,5.0205,5.0176,5.0167,5.0156,5.0146,5.0123,0,0]}]]